User: anonymous   Login
Location: Unspecified
(0.0000°N, 0.0000°E)
Time: 21:05:15
(UTC+00:00)
Language:

STARLINK-33855 - Orbit

View from above orbital plane
View from above orbital plane
View from above satellite
View from above satellite

Ground track
Ground track

The orbit is defined by the following mean orbital elements,

1 64335U          26145.13501935 +.00000000 +00000-0 +72940-3 0 00004
2 64335  43.0039  49.8160 0001757 255.5598 104.5059 15.27603527    01
Epoch (UTC): 25 May 2026 03:14:25
Eccentricity: 0.0001757
inclination: 43.0039°
perigee height: 482 km
apogee height: 484 km
right ascension of ascending node: 49.8160°
argument of perigee: 255.5598°
revolutions per day: 15.27603527
mean anomaly at epoch: 104.5059°

The dashed part of the orbit path shows where the satellite is in the earth's shadow,  

DLR